STARLINK-1615

decayed
NORAD ID: 46166 Int'l Des: 2020-057 Owner: SPXS Country: US Constellation: starlink
LEOCIRCULAR
Group

About STARLINK-1615

Description loading...

Altitude History

Altitude vs Time

uPlot chart will show altitude changes over time

Two-Line Element Set

1 46166U 20057BB 24185.91053079 .13283304 12124-4 20280-2 0 9993
2 46166 53.0266 142.0124 0003730 205.0561 260.4075 16.33396205214912
Epoch: Jul 3, 2024 • Age: 10603 hours

Current Status

Position data unavailable
Launch Date Aug 18, 2020
Age 5 years
Decay Date Jul 4, 2024
Type internet

Technical Details

Classification Payload
Mass 260.00 kg
Dry Mass 248.00 kg
Total Mass 260.00 kg
Length 0.20 m
Diameter 2.80 m
Span 9.00 m
Shape Box + pan
Manufacturer SPXS
Bus Type Starlink
Phase Status Unknown Transfer Status
Owner/State SPXS/US

Large Constellations

Loading constellations...